This is the latest recevied weather packets stored in our database for station/object N9BLE. If no packets are shown the sender has not sent any weather packets the latest 10 day(s).
| Time | Temp. | Humidity | Pressure | Rain* | Wind** | Luminosity | Snow |
|---|---|---|---|---|---|---|---|
| 1777349665 | 15.56° C | 99% | 1007.6 hPa | 0 mm | - | 0 W/m² | - |
| 1777349363 | 15.56° C | 99% | 1007.6 hPa | 0 mm | - | 0 W/m² | - |
| 1777349061 | 15.56° C | 99% | 1007.5 hPa | 0 mm | - | 0 W/m² | - |
| 1777348757 | 15.56° C | 99% | 1007.6 hPa | 0 mm | - | 0 W/m² | - |
| 1777348456 | 15.56° C | 99% | 1007.8 hPa | 0 mm | - | 0 W/m² | - |
| 1777348153 | 15.56° C | 99% | 1007.5 hPa | 0 mm | - | 0 W/m² | - |
| 1777347851 | 15.56° C | 98% | 1007.5 hPa | 3.05 mm | - | 0 W/m² | - |
| 1777347549 | 15.56° C | 98% | 1007.4 hPa | 10.67 mm | - | 0 W/m² | - |
| 1777347244 | 15.56° C | 98% | 1007.7 hPa | 9.65 mm | - | 0 W/m² | - |
| 1777346940 | 15.56° C | 98% | 1007.4 hPa | 1.78 mm | - | 0 W/m² | - |
| 1777346637 | 15.56° C | 98% | 1007.2 hPa | 0 mm | - | 0 W/m² | - |
| 1777346333 | 15.56° C | 98% | 1007.2 hPa | 0 mm | - | 0 W/m² | - |
| 1777346031 | 15.56° C | 98% | 1006.8 hPa | 0 mm | - | 0 W/m² | - |
| 1777345728 | 15.56° C | 98% | 1006.8 hPa | 0 mm | - | 0 W/m² | - |
| 1777345121 | 15.56° C | 99% | 1006.6 hPa | 0 mm | - | 0 W/m² | - |
| 1777344818 | 15.56° C | 99% | 1006.7 hPa | 0 mm | - | 0 W/m² | - |
| 1777344513 | 15.56° C | 99% | 1006.8 hPa | 0 mm | - | 0 W/m² | - |
| 1777343908 | 15.56° C | 99% | 1006.8 hPa | 0 mm | - | 0 W/m² | - |
| 1777343606 | 15.56° C | 99% | 1007 hPa | 0 mm | - | 0 W/m² | - |
| 1777343303 | 15.56° C | 99% | 1006.9 hPa | 0 mm | - | 0 W/m² | - |
| 1777343001 | 15.56° C | 99% | 1006.7 hPa | 0 mm | - | 0 W/m² | - |
| 1777342698 | 15.56° C | 99% | 1006.7 hPa | 0 mm | - | 0 W/m² | - |
| 1777342091 | 15.56° C | 99% | 1006.5 hPa | 0 mm | - | 0 W/m² | - |
| 1777341787 | 15.56° C | 99% | 1006.5 hPa | 0 mm | - | 0 W/m² | - |
| 1777339900 | 16.11° C | 98% | 1005.2 hPa | 0 mm | - | 0 W/m² | - |
* Rain latest hour (hover to see other rain measurements)
** Current wind speed in m/s (hover to see current wind gust speed)